Location: De Lemmer
(52.8462°N, 5.7091°E)
Time: 11:39:04
(UTC+00:00)

Cosmos 1975 - Pass Details

Date: 18 September 2020
Orbit: 540 x 563 km, 82.5° (Epoch: 30 October)

Event Time Altitude Azimuth Distance (km) Brightness Sun altitude
Rises 18:45:14 0° 196° (SSW) 2,746 6.4 -9.9°
Reaches altitude 10° 18:47:24 10° 198° (SSW) 1,854 5.5 -10.2°
Maximum altitude 18:51:29 69° 282° (WNW) 607 3.2 -10.8°
Drops below altitude 10° 18:55:35 10° 7° (N) 1,864 5.7 -11.4°
Sets 18:57:47 0° 10° (N) 2,762 6.5 -11.7°
